| time (UTC) | temp F | wind direction | speed MPH | gust MPH | rain 1hr in | rain 24hr in | rain mn in | humidity % | barometer mb |
| 20260505003104 | 72 | 182 | 1.0 | 6.0 | 0.00 | 0.00 | 0.00 | 49 | 1015.0 |
| 20260505002558 | 72 | 265 | 2.0 | 9.0 | 0.00 | 0.00 | 0.00 | 49 | 1015.1 |
| 20260505002058 | 72 | 166 | 1.0 | 9.0 | 0.00 | 0.00 | 0.00 | 49 | 1014.9 |
| 20260505001559 | 72 | 166 | 1.0 | 5.0 | 0.00 | 0.00 | 0.00 | 53 | 1014.9 |
| 20260505001058 | 72 | 162 | 1.0 | 2.0 | 0.00 | 0.00 | 0.00 | 56 | 1014.7 |
| 20260505000558 | 74 | 155 | 0.0 | 1.0 | 0.00 | 0.00 | 0.00 | 52 | 1014.6 |
| 20260505000112 | 75 | 0 | 0.0 | 3.0 | 0.00 | 0.00 | 0.00 | 52 | 1014.5 |
| 20260504235558 | 76 | 0 | 0.0 | 3.0 | 0.00 | 0.00 | 0.00 | 46 | 1014.5 |
| 20260504235058 | 76 | 218 | 0.0 | 1.0 | 0.00 | 0.00 | 0.00 | 46 | 1014.5 |
| 20260504234556 | 77 | 0 | 0.0 | 1.0 | 0.00 | 0.00 | 0.00 | 40 | 1014.5 |
| 20260504234057 | 77 | 0 | 0.0 | 3.0 | 0.00 | 0.00 | 0.00 | 42 | 1014.4 |
| 20260504233558 | 77 | 231 | 0.0 | 3.0 | 0.00 | 0.00 | 0.00 | 41 | 1014.7 |
| 20260504233102 | 78 | 219 | 1.0 | 3.0 | 0.00 | 0.00 | 0.00 | 38 | 1014.6 |
| 20260504232558 | 78 | 203 | 1.0 | 3.0 | 0.00 | 0.00 | 0.00 | 38 | 1014.6 |
| 20260504232055 | 78 | 282 | 1.0 | 4.0 | 0.00 | 0.00 | 0.00 | 40 | 1014.6 |
| 20260504231558 | 79 | 260 | 1.0 | 4.0 | 0.00 | 0.00 | 0.00 | 36 | 1014.7 |
| 20260504231058 | 79 | 295 | 0.0 | 2.0 | 0.00 | 0.00 | 0.00 | 40 | 1014.7 |
| 20260504230558 | 80 | 246 | 1.0 | 3.0 | 0.00 | 0.00 | 0.00 | 35 | 1014.6 |
| 20260504230057 | 80 | 248 | 0.0 | 4.0 | 0.00 | 0.00 | 0.00 | 35 | 1014.7 |
| 20260504225602 | 80 | 236 | 1.0 | 4.0 | 0.00 | 0.00 | 0.00 | 38 | 1014.6 |
| 20260504225100 | 81 | 243 | 1.0 | 4.0 | 0.00 | 0.00 | 0.00 | 39 | 1014.6 |
| 20260504224600 | 81 | 355 | 0.0 | 5.0 | 0.00 | 0.00 | 0.00 | 38 | 1014.6 |
| 20260504224058 | 81 | 151 | 0.0 | 5.0 | 0.00 | 0.00 | 0.00 | 35 | 1014.5 |
| 20260504223558 | 81 | 146 | 2.0 | 5.0 | 0.00 | 0.00 | 0.00 | 35 | 1014.6 |
| 20260504223058 | 82 | 127 | 1.0 | 3.0 | 0.00 | 0.00 | 0.00 | 38 | 1014.6 |
| 20260504222559 | 81 | 235 | 0.0 | 3.0 | 0.00 | 0.00 | 0.00 | 38 | 1014.7 |
| 20260504222057 | 81 | 0 | 0.0 | 4.0 | 0.00 | 0.00 | 0.00 | 36 | 1014.7 |
| 20260504221557 | 81 | 159 | 1.0 | 4.0 | 0.00 | 0.00 | 0.00 | 34 | 1014.6 |
| 20260504221059 | 81 | 198 | 1.0 | 4.0 | 0.00 | 0.00 | 0.00 | 36 | 1014.5 |
| 20260504220555 | 80 | 301 | 1.0 | 5.0 | 0.00 | 0.00 | 0.00 | 37 | 1014.6 |
| 20260504220115 | 80 | 0 | 1.0 | 5.0 | 0.00 | 0.00 | 0.00 | 34 | 1014.7 |
| 20260504215558 | 80 | 166 | 2.0 | 6.0 | 0.00 | 0.00 | 0.00 | 38 | 1014.7 |
| 20260504215101 | 80 | 151 | 2.0 | 6.0 | 0.00 | 0.00 | 0.00 | 34 | 1014.7 |
| 20260504214600 | 81 | 136 | 2.0 | 6.0 | 0.00 | 0.00 | 0.00 | 34 | 1014.7 |
| 20260504214058 | 81 | 134 | 2.0 | 5.0 | 0.00 | 0.00 | 0.00 | 34 | 1014.7 |
| 20260504213558 | 81 | 158 | 2.0 | 4.0 | 0.00 | 0.00 | 0.00 | 33 | 1014.7 |
| 20260504213102 | 81 | 165 | 2.0 | 4.0 | 0.00 | 0.00 | 0.00 | 37 | 1014.7 |
| 20260504212558 | 81 | 135 | 1.0 | 4.0 | 0.00 | 0.00 | 0.00 | 37 | 1014.6 |
| 20260504212058 | 81 | 0 | 1.0 | 5.0 | 0.00 | 0.00 | 0.00 | 36 | 1014.7 |
| 20260504211557 | 81 | 131 | 1.0 | 5.0 | 0.00 | 0.00 | 0.00 | 37 | 1014.8 |
| 20260504211059 | 81 | 184 | 1.0 | 5.0 | 0.00 | 0.00 | 0.00 | 38 | 1014.7 |
| 20260504210558 | 81 | 236 | 1.0 | 6.0 | 0.00 | 0.00 | 0.00 | 40 | 1014.6 |
| 20260504210056 | 81 | 252 | 2.0 | 6.0 | 0.00 | 0.00 | 0.00 | 35 | 1014.7 |
| 20260504205559 | 81 | 120 | 2.0 | 6.0 | 0.00 | 0.00 | 0.00 | 39 | 1014.7 |
| 20260504205059 | 81 | 113 | 1.0 | 6.0 | 0.00 | 0.00 | 0.00 | 38 | 1014.9 |
| 20260504204559 | 80 | 46 | 1.0 | 4.0 | 0.00 | 0.00 | 0.00 | 38 | 1014.9 |
| 20260504204058 | 81 | 115 | 1.0 | 4.0 | 0.00 | 0.00 | 0.00 | 37 | 1014.9 |
| 20260504203558 | 81 | 200 | 2.0 | 6.0 | 0.00 | 0.00 | 0.00 | 38 | 1015.1 |
| 20260504203057 | 81 | 0 | 1.0 | 6.0 | 0.00 | 0.00 | 0.00 | 40 | 1014.9 |
| 20260504202558 | 81 | 139 | 2.0 | 4.0 | 0.00 | 0.00 | 0.00 | 35 | 1015.1 |
| 20260504202058 | 81 | 179 | 1.0 | 4.0 | 0.00 | 0.00 | 0.00 | 36 | 1015.1 |
| 20260504201559 | 80 | 233 | 2.0 | 7.0 | 0.00 | 0.00 | 0.00 | 35 | 1015.2 |
| 20260504201058 | 80 | 115 | 2.0 | 8.0 | 0.00 | 0.00 | 0.00 | 38 | 1015.3 |
| 20260504200558 | 79 | 102 | 1.0 | 8.0 | 0.00 | 0.00 | 0.00 | 39 | 1015.3 |
| 20260504200101 | 79 | 110 | 1.0 | 8.0 | 0.00 | 0.00 | 0.00 | 38 | 1015.5 |
| 20260504195557 | 79 | 113 | 3.0 | 7.0 | 0.00 | 0.00 | 0.00 | 37 | 1015.6 |
| 20260504195059 | 79 | 150 | 3.0 | 7.0 | 0.00 | 0.00 | 0.00 | 37 | 1015.8 |
| 20260504194603 | 79 | 143 | 3.0 | 6.0 | 0.00 | 0.00 | 0.00 | 41 | 1015.9 |
| 20260504194059 | 79 | 150 | 3.0 | 6.0 | 0.00 | 0.00 | 0.00 | 39 | 1015.9 |
| 20260504193559 | 79 | 46 | 2.0 | 8.0 | 0.00 | 0.00 | 0.00 | 42 | 1016.0 |
| 20260504193059 | 80 | 106 | 2.0 | 8.0 | 0.00 | 0.00 | 0.00 | 40 | 1016.2 |
| 20260504192558 | 80 | 175 | 1.0 | 5.0 | 0.00 | 0.00 | 0.00 | 38 | 1016.1 |
| 20260504192058 | 80 | 139 | 1.0 | 5.0 | 0.00 | 0.00 | 0.00 | 39 | 1016.3 |
| 20260504191605 | 80 | 210 | 0.0 | 5.0 | 0.00 | 0.00 | 0.00 | 39 | 1016.4 |
| 20260504191058 | 80 | 261 | 2.0 | 5.0 | 0.00 | 0.00 | 0.00 | 41 | 1016.4 |
| 20260504190559 | 80 | 0 | 1.0 | 4.0 | 0.00 | 0.00 | 0.00 | 38 | 1016.5 |
| 20260504190110 | 79 | 236 | 0.0 | 5.0 | 0.00 | 0.00 | 0.00 | 37 | 1016.5 |
| 20260504185557 | 79 | 322 | 2.0 | 6.0 | 0.00 | 0.00 | 0.00 | 40 | 1016.7 |
| 20260504185058 | 79 | 139 | 1.0 | 6.0 | 0.00 | 0.00 | 0.00 | 40 | 1016.7 |
| 20260504184617 | 78 | 153 | 2.0 | 6.0 | 0.00 | 0.00 | 0.00 | 39 | 1016.7 |
| 20260504184058 | 78 | 168 | 1.0 | 7.0 | 0.00 | 0.00 | 0.00 | 41 | 1016.9 |
| 20260504183559 | 77 | 231 | 3.0 | 7.0 | 0.00 | 0.00 | 0.00 | 37 | 1017.0 |
| 20260504183111 | 78 | 154 | 1.0 | 6.0 | 0.00 | 0.00 | 0.00 | 41 | 1016.7 |
| 20260504182558 | 78 | 110 | 3.0 | 5.0 | 0.00 | 0.00 | 0.00 | 39 | 1017.1 |
| 20260504182058 | 77 | 80 | 1.0 | 8.0 | 0.00 | 0.00 | 0.00 | 44 | 1017.2 |
| 20260504181604 | 77 | 259 | 3.0 | 8.0 | 0.00 | 0.00 | 0.00 | 42 | 1017.2 |
| 20260504181059 | 78 | 178 | 2.0 | 5.0 | 0.00 | 0.00 | 0.00 | 42 | 1017.1 |
| 20260504180558 | 77 | 0 | 1.0 | 3.0 | 0.00 | 0.00 | 0.00 | 40 | 1017.1 |
| 20260504180111 | 77 | 148 | 0.0 | 7.0 | 0.00 | 0.00 | 0.00 | 43 | 1017.3 |
| 20260504175558 | 76 | 211 | 1.0 | 7.0 | 0.00 | 0.00 | 0.00 | 47 | 1017.3 |
| 20260504175058 | 76 | 150 | 1.0 | 5.0 | 0.00 | 0.00 | 0.00 | 45 | 1017.3 |
| 20260504174610 | 76 | 138 | 1.0 | 5.0 | 0.00 | 0.00 | 0.00 | 45 | 1017.3 |
| 20260504174058 | 76 | 150 | 2.0 | 8.0 | 0.00 | 0.00 | 0.00 | 44 | 1017.5 |
| 20260504173558 | 75 | 147 | 3.0 | 8.0 | 0.00 | 0.00 | 0.00 | 46 | 1017.5 |
| 20260504173104 | 75 | 137 | 2.0 | 6.0 | 0.00 | 0.00 | 0.00 | 42 | 1017.5 |
| 20260504172558 | 75 | 65 | 2.0 | 6.0 | 0.00 | 0.00 | 0.00 | 46 | 1017.7 |
| 20260504172058 | 76 | 178 | 2.0 | 6.0 | 0.00 | 0.00 | 0.00 | 43 | 1017.6 |
| 20260504171557 | 75 | 144 | 2.0 | 5.0 | 0.00 | 0.00 | 0.00 | 47 | 1017.6 |
| 20260504171101 | 75 | 173 | 3.0 | 5.0 | 0.00 | 0.00 | 0.00 | 46 | 1017.7 |
| 20260504170559 | 75 | 241 | 2.0 | 4.0 | 0.00 | 0.00 | 0.00 | 48 | 1017.7 |
| 20260504170105 | 75 | 154 | 0.0 | 6.0 | 0.00 | 0.00 | 0.00 | 43 | 1017.9 |
| 20260504151058 | 70 | 0 | 0.0 | 3.0 | 0.00 | 0.00 | 0.00 | 56 | 1018.6 |
| 20260504150601 | 69 | 147 | 1.0 | 5.0 | 0.00 | 0.00 | 0.00 | 55 | 1018.7 |
| 20260504150103 | 69 | 249 | 2.0 | 5.0 | 0.00 | 0.00 | 0.00 | 56 | 1018.7 |
| 20260504141058 | 65 | 146 | 0.0 | 2.0 | 0.00 | 0.00 | 0.00 | 71 | 1019.0 |
| 20260504140558 | 64 | 143 | 0.0 | 3.0 | 0.00 | 0.00 | 0.00 | 72 | 1019.1 |
| 20260504130558 | 61 | 145 | 0.0 | 1.0 | 0.00 | 0.00 | 0.00 | 74 | 1018.6 |
| 20260504120104 | 49 | 0 | 0.0 | 0.0 | 0.00 | 0.00 | 0.00 | 95 | 1018.3 |
| 20260504110559 | 46 | 0 | 0.0 | 0.0 | 0.00 | 0.00 | 0.00 | 94 | 1018.2 |
| 20260504100557 | 48 | 0 | 0.0 | 0.0 | 0.00 | 0.00 | 0.00 | 95 | 1018.1 |
| 20260504081557 | 49 | 148 | 0.0 | 0.0 | 0.00 | 0.00 | 0.00 | 92 | 1018.2 |
| 20260504081101 | 49 | 0 | 0.0 | 0.0 | 0.00 | 0.00 | 0.00 | 92 | 1018.4 |
| 20260504080557 | 49 | 0 | 0.0 | 0.0 | 0.00 | 0.00 | 0.00 | 92 | 1018.4 |
| 20260504050558 | 53 | 0 | 0.0 | 0.0 | 0.00 | 0.00 | 0.00 | 82 | 1019.6 |
| 20260504045557 | 54 | 0 | 0.0 | 0.0 | 0.00 | 0.00 | 0.00 | 79 | 1019.5 |
| 20260504045058 | 54 | 0 | 0.0 | 0.0 | 0.00 | 0.00 | 0.00 | 82 | 1019.7 |
| 20260504044603 | 54 | 0 | 0.0 | 0.0 | 0.00 | 0.00 | 0.00 | 81 | 1019.6 |
| 20260504044100 | 54 | 0 | 0.0 | 0.0 | 0.00 | 0.00 | 0.00 | 81 | 1019.5 |
| 20260504043600 | 54 | 0 | 0.0 | 0.0 | 0.00 | 0.00 | 0.00 | 80 | 1019.5 |
| 20260504043101 | 54 | 0 | 0.0 | 0.0 | 0.00 | 0.00 | 0.00 | 82 | 1019.8 |
| 20260504042600 | 55 | 0 | 0.0 | 0.0 | 0.00 | 0.00 | 0.00 | 86 | 1019.8 |
| 20260504042102 | 55 | 0 | 0.0 | 0.0 | 0.00 | 0.00 | 0.00 | 80 | 1019.8 |
| 20260504041556 | 55 | 0 | 0.0 | 0.0 | 0.00 | 0.00 | 0.00 | 79 | 1019.8 |
| 20260504041059 | 55 | 0 | 0.0 | 0.0 | 0.00 | 0.00 | 0.00 | 76 | 1020.0 |
| 20260504040559 | 55 | 0 | 0.0 | 0.0 | 0.00 | 0.00 | 0.00 | 76 | 1019.9 |
| 20260504040106 | 55 | 0 | 0.0 | 0.0 | 0.00 | 0.00 | 0.00 | 76 | 1019.8 |
| 20260504035557 | 55 | 0 | 0.0 | 0.0 | 0.00 | 0.00 | 0.00 | 74 | 1019.9 |
| 20260504035058 | 55 | 0 | 0.0 | 0.0 | 0.00 | 0.00 | 0.00 | 72 | 1019.8 |
| 20260504034616 | 55 | 0 | 0.0 | 0.0 | 0.00 | 0.00 | 0.00 | 81 | 1019.8 |
| 20260504034058 | 55 | 0 | 0.0 | 0.0 | 0.00 | 0.00 | 0.00 | 81 | 1019.9 |
| 20260504033602 | 55 | 0 | 0.0 | 0.0 | 0.00 | 0.00 | 0.00 | 73 | 1019.9 |
| 20260504033127 | 55 | 0 | 0.0 | 0.0 | 0.00 | 0.00 | 0.00 | 75 | 1019.9 |
| 20260504032600 | 56 | 0 | 0.0 | 0.0 | 0.00 | 0.00 | 0.00 | 78 | 1019.9 |
| 20260504032100 | 56 | 0 | 0.0 | 0.0 | 0.00 | 0.00 | 0.00 | 77 | 1019.9 |
| 20260504031558 | 56 | 0 | 0.0 | 0.0 | 0.00 | 0.00 | 0.00 | 79 | 1019.8 |
| 20260504031058 | 56 | 0 | 0.0 | 0.0 | 0.00 | 0.00 | 0.00 | 76 | 1019.8 |
| 20260504030557 | 56 | 0 | 0.0 | 0.0 | 0.00 | 0.00 | 0.00 | 75 | 1019.9 |
| 20260504030104 | 56 | 0 | 0.0 | 0.0 | 0.00 | 0.00 | 0.00 | 77 | 1019.9 |
| 20260504025558 | 56 | 0 | 0.0 | 0.0 | 0.00 | 0.00 | 0.00 | 75 | 1019.8 |
| 20260504025058 | 56 | 0 | 0.0 | 0.0 | 0.00 | 0.00 | 0.00 | 77 | 1019.8 |
| 20260504024558 | 56 | 0 | 0.0 | 0.0 | 0.00 | 0.00 | 0.00 | 77 | 1019.6 |
| 20260504024102 | 57 | 0 | 0.0 | 0.0 | 0.00 | 0.00 | 0.00 | 79 | 1019.6 |
| 20260504023558 | 57 | 0 | 0.0 | 0.0 | 0.00 | 0.00 | 0.00 | 80 | 1019.5 |
| 20260504023105 | 57 | 0 | 0.0 | 0.0 | 0.00 | 0.00 | 0.00 | 76 | 1019.6 |
| 20260504022558 | 57 | 0 | 0.0 | 0.0 | 0.00 | 0.00 | 0.00 | 71 | 1019.7 |
| 20260504022100 | 57 | 0 | 0.0 | 0.0 | 0.00 | 0.00 | 0.00 | 69 | 1019.6 |
| 20260504021557 | 57 | 0 | 0.0 | 0.0 | 0.00 | 0.00 | 0.00 | 73 | 1019.6 |
| 20260504021058 | 57 | 0 | 0.0 | 0.0 | 0.00 | 0.00 | 0.00 | 72 | 1019.6 |
| 20260504020558 | 57 | 0 | 0.0 | 0.0 | 0.00 | 0.00 | 0.00 | 72 | 1019.7 |
| 20260504020100 | 57 | 0 | 0.0 | 0.0 | 0.00 | 0.00 | 0.00 | 73 | 1019.5 |
| 20260504015558 | 58 | 0 | 0.0 | 0.0 | 0.00 | 0.00 | 0.00 | 71 | 1019.5 |
| 20260504015101 | 58 | 0 | 0.0 | 0.0 | 0.00 | 0.00 | 0.00 | 71 | 1019.3 |
| 20260504014557 | 58 | 0 | 0.0 | 0.0 | 0.00 | 0.00 | 0.00 | 72 | 1019.2 |
| 20260504014057 | 58 | 0 | 0.0 | 0.0 | 0.00 | 0.00 | 0.00 | 74 | 1019.2 |
| 20260504013557 | 59 | 0 | 0.0 | 0.0 | 0.00 | 0.00 | 0.00 | 79 | 1019.1 |
| 20260504013109 | 59 | 0 | 0.0 | 0.0 | 0.00 | 0.00 | 0.00 | 78 | 1019.1 |
| 20260504012601 | 59 | 0 | 0.0 | 0.0 | 0.00 | 0.00 | 0.00 | 75 | 1018.9 |
| 20260504012100 | 60 | 0 | 0.0 | 0.0 | 0.00 | 0.00 | 0.00 | 75 | 1018.9 |
| 20260504011556 | 60 | 0 | 0.0 | 0.0 | 0.00 | 0.00 | 0.00 | 75 | 1018.8 |
| 20260504011057 | 60 | 0 | 0.0 | 0.0 | 0.00 | 0.00 | 0.00 | 67 | 1018.9 |
| 20260504010558 | 60 | 0 | 0.0 | 0.0 | 0.00 | 0.00 | 0.00 | 67 | 1019.0 |
| 20260504010113 | 61 | 0 | 0.0 | 0.0 | 0.00 | 0.00 | 0.00 | 71 | 1018.9 |
| 20260504005601 | 61 | 0 | 0.0 | 0.0 | 0.00 | 0.00 | 0.00 | 68 | 1018.9 |
| 20260504005058 | 62 | 0 | 0.0 | 0.0 | 0.00 | 0.00 | 0.00 | 68 | 1018.9 |
| 20260504004624 | 62 | 0 | 0.0 | 0.0 | 0.00 | 0.00 | 0.00 | 67 | 1018.6 |
| 20260504004059 | 63 | 0 | 0.0 | 0.0 | 0.00 | 0.00 | 0.00 | 63 | 1018.5 |
| 20260504003601 | 63 | 0 | 0.0 | 0.0 | 0.00 | 0.00 | 0.00 | 63 | 1018.4 |